Voltar ao catálogo

STARLINK-30250

AtivoComunicaçõesVLEO
NORAD 57527·PAYLOAD·🇺🇸 United States

Lançado Aug 8, 2023 de Vandenberg Space Force Base

Loading…

Próximas Passagens (próximas 24 horas)

TLE

AtualizadoSource: CelesTrak SupGP

Época: Sep 14, 2026, 22:13 UTC

1 57527C 23115G   26257.92618056  .00032643  00000+0  11702-2 0  2574
2 57527  42.9993  13.1563 0002501 300.0921 263.8989 15.27896322    17

Acompanhe STARLINK-30250 em tempo real com AllMySat

Download on the App Store